Location: ????? ???????
(25.7275°N, 32.5929°E)
Time: 11:55:32
(UTC+00:00)

H-2A R/B - Pass Details

Date: 02 March 2021
Orbit: 732 x 837 km, 98.2° (Epoch: 15 April)

Event Time Altitude Azimuth Distance (km) Brightness Sun altitude
Rises 16:45:10 0° 168° (SSE) 3,333 5.2 -12.8°
Reaches altitude 10° 16:47:29 10° 169° (S) 2,414 4.5 -13.3°
Maximum altitude 16:52:52 85° 256° (WSW) 840 2.2 -14.5°
Drops below altitude 10° 16:58:20 10° 347° (NNW) 2,451 4.8 -15.7°
Sets 17:00:42 0° 348° (NNW) 3,387 5.5 -16.3°
